www.pogodaiklimat.ru

Погода и климат >> Архив погоды >> Испания >> Вальядолид


ПОГОДА в Вальядолиде

  • Прогноз погоды в Вальядолиде
  • Монитор погоды в Вальядолиде

АРХИВ ПОГОДЫ в Вальядолиде

Время (UTC), дата Ветер
(напр.,м/с)
 
Видим.   Явления Облачность Т
(С)
Тd
(С)
f
(%)
Тe
(С)
Тes
(С)
Комфортность P
(гПа)
Po
(гПа)
Тmin
(С)
Tmax
(С)
R
(мм)
R24
(мм)
S
(см)
01 9.09 СЗ 1 16 км н/о +12.8 +5.9 63 +13 +13 1018.9 934.2
02 9.09 С 1 18 км н/о +12.1 +5.3 63 +12 +12 1019.0 934.1
03 9.09 СЗ 1 20 км ясно +11.4 +5.7 68 +11 +11 1018.9 933.8
04 9.09 СЗ 1 15 км н/о +10.7 +5.7 71 +11 +11 1018.3 933.1
05 9.09 СЗ 1 15 км н/о +10.1 +5.9 75 +11 +11 1018.3 932.9
06 9.09 СЗ 1 20 км 3/0
[Cs]
+9.6 +5.8 77 +9 +9 1018.7 933.1 +9.6
07 9.09 С 1 14 км н/о +10.6 +6.2 74 +10 +10 1018.8 933.5
08 9.09 С 1 11 км н/о +12.5 +6.5 67 +13 +13 1018.1 933.4
09 9.09 Ю 2 25 км 5/0
[Cs]
+15.6 +6.8 56 +16 +22 1016.8 933.1
10 9.09 Ю 1 17 км н/о +18.2 +7.3 49 +19 +19 1016.2 933.3
11 9.09 ЮЗ 2 18 км н/о +21.9 +6.1 36 +23 +23 комфорт 1014.3 932.5
12 9.09 З 4 30 км 6/0
[Cs]
+24.9 +5.6 29 +25 +32 комфорт 1012.9 932.0
13 9.09 З 3 20 км н/о +25.9 +3.8 24 +25 +25 комфорт 1012.0 931.4
14 9.09 З 3 20 км н/о +26.9 +0.6 18 +25 +25 комфорт 1010.9 930.6
15 9.09 З 4 30 км 6/0
[Cs]
+26.3 +0.8 19 +25 +30 комфорт 1010.2 929.8
16 9.09 З 5 20 км н/о +26.1 -0.1 18 +24 +24 комфорт 1010.1 929.6
17 9.09 З 5 20 км н/о +25.3 -0.7 18 +24 +24 комфорт 1010.2 929.5
18 9.09 З 4 30 км 5/3 600 м
[Sc Ac lent Ci fib]
+23.9 +1.5 23 +23 +23 комфорт 1010.5 929.4 +27.1
19 9.09 СЗ 3 20 км н/о +22.4 +0.8 24 +22 +22 комфорт 1011.2 929.7
20 9.09 СЗ 4 16 км н/о +20.0 +4.5 36 +21 +21 комфорт 1012.8 930.6
21 9.09 СЗ 5 15 км 8/4 600 м
[Sc Ac trans Ci fib]
+18.8 +3.4 36 +19 +19 1013.7 931.1
22 9.09 СЗ 5 17 км н/о +17.2 +5.2 45 +17 +17 1014.5 931.4
23 9.09 СЗ 4 18 км н/о +16.0 +5.9 51 +15 +15 1015.2 931.7
00 10.09 СЗ 4 15 км 3/0
[Ci sp]
+14.9 +5.9 55 +14 +14 1015.9 932.1
01 10.09 СВ 1 17 км н/о +13.9 +7.0 63 +14 +14 1016.6 932.4
02 10.09 СЗ 4 20 км н/о +13.0 +4.4 56 +12 +12 1016.8 932.3
03 10.09 СЗ 3 15 км 3/0
[Ci sp]
+11.7 +3.7 58 +11 +11 1016.7 931.9
04 10.09 СЗ 4 20 км н/о +11.0 +3.3 59 +9 +9 1017.1 932.0
05 10.09 СЗ 3 19 км н/о +10.2 +3.0 61 +9 +9 1018.1 932.7
06 10.09 СЗ 3 25 км 3/1 600 м
[Cu hum Ac lent]
+9.6 +2.4 61 +8 +8 1018.7 933.1 +9.5
07 10.09 СЗ 3 17 км н/о +10.9 +2.7 57 +9 +9 1018.5 933.3
08 10.09 СЗ 3 19 км н/о +12.5 +3.4 54 +12 +12 1018.5 933.7
09 10.09 СЗ 4 30 км 3/3 600 м
[Cu Sc]
+14.0 +2.2 45 +13 +16 1018.5 934.1
10 10.09 СЗ 5 18 км н/о +15.8 +2.2 40 +15 +15 1018.3 934.4
11 10.09 СЗ 4 20 км н/о +16.0 +2.4 40 +15 +15 1018.2 934.4
12 10.09 СЗ 5 30 км 9/6 600 м
[Cu Sc Ac cuf]
+17.5 +2.2 36 +17 +17 1017.4 934.1
13 10.09 С 5 19 км н/о +17.8 +3.3 38 +17 +17 1017.0 933.8
14 10.09 СЗ 5 20 км н/о +19.0 +3.2 35 +19 +19 1016.5 933.7
15 10.09 СЗ 6 30 км 8/6 600 м
[Cu Sc Ac cuf]
+19.1 +3.7 36 +19 +20 1015.8 933.1
16 10.09 СВ 3 19 км н/о +18.6 +4.7 40 +19 +19 1016.5 933.6
17 10.09 СВ 2 20 км н/о +17.0 +5.9 48 +18 +18 1017.7 934.3
18 10.09 С 2 30 км 8/6 600 м
[Cu Sc Ac cuf]
+17.0 +5.6 47 +18 +18 1018.2 934.7 +19.6
19 10.09 СВ 2 20 км н/о +15.6 +6.8 56 +16 +16 1019.4 935.5
20 10.09 С 2 19 км н/о +14.1 +7.4 64 +14 +14 1020.7 936.3
21 10.09 В 3 25 км 5/0
[Ac cuf Ci fib]
+13.4 +7.2 66 +12 +12 1022.3 937.5
22 10.09 СВ 1 19 км н/о +12.5 +7.4 71 +13 +13 1023.1 938.0
23 10.09 СВ 2 19 км н/о +12.2 +7.5 73 +12 +12 1023.3 938.1
00 11.09 С 2 25 км 3/0 1500 м
[Ac cuf]
+12.1 +7.2 72 +12 +12 1024.0 938.7
01 11.09 С 3 19 км н/о +11.3 +6.6 73 +10 +10 1024.0 938.5
02 11.09 С 3 19 км н/о +12.4 +6.0 65 +11 +11 1023.6 938.4
03 11.09 С 3 25 км 9/0
[Ac As Cs]
+13.6 +6.0 60 +13 +13 1023.5 938.7
04 11.09 С 3 19 км н/о +13.6 +5.7 59 +13 +13 1023.5 938.7
05 11.09 С 2 19 км н/о +12.7 +6.1 64 +12 +12 1024.1 939.0
06 11.09 С 2 30 км 5/0 1500 м
[Ac lent Cs]
+12.0 +6.1 67 +11 +11 1025.2 939.8 +11.3
07 11.09 С 3 19 км н/о +12.3 +5.7 64 +11 +11 1025.6 940.2
08 11.09 С 2 19 км н/о +13.7 +6.5 62 +13 +13 1025.9 940.9
09 11.09 СВ 3 30 км 8/6 600 м
[Cu Sc Ci fib]
+15.8 +7.5 58 +15 +17 1025.7 941.3
10 11.09 СВ 3 16 км н/о +17.0 +7.6 54 +17 +17 1025.3 941.3
11 11.09 СВ 3 13 км н/о +18.5 +7.3 48 +19 +19 1024.2 940.7
12 11.09 СВ 4 30 км 6/5 600 м
[Sc diur, vesp Ci fib]
+19.4 +7.2 45 +20 +25 1023.7 940.5
13 11.09 СВ 3 17 км н/о +20.4 +7.0 42 +22 +22 комфорт 1023.3 940.4
14 11.09 СВ 4 18 км н/о +21.3 +6.8 39 +22 +22 комфорт 1022.6 940.0
15 11.09 С 3 30 км 6/1 600 м
[Cu hum Ci sp]
+21.2 +6.7 39 +22 +27 комфорт 1022.5 939.8
16 11.09 СВ 3 19 км н/о +20.9 +7.1 41 +23 +23 комфорт 1022.6 939.9
17 11.09 СВ 3 19 км н/о +20.1 +6.8 42 +21 +21 комфорт 1022.9 939.9
18 11.09 С 3 30 км 1/0 1500 м
[Ac lent Ci fib]
+18.7 +7.2 47 +19 +20 1023.8 940.4 +21.7
19 11.09 С 2 18 км н/о +17.5 +7.8 53 +18 +18 1024.8 941.0
20 11.09 С 2 17 км н/о +16.4 +7.9 57 +17 +17 1026.0 941.8
21 11.09 С 2 25 км ясно +15.5 +8.0 61 +15 +15 1027.2 942.6
22 11.09 С 2 18 км н/о +14.6 +7.9 64 +15 +15 1027.8 942.9
23 11.09 С 2 17 км н/о +13.8 +8.2 69 +14 +14 1028.1 943.0
00 12.09 С 2 20 км ясно +13.1 +8.2 72 +12 +12 1028.3 943.0
01 12.09 С 2 15 км н/о +12.4 +8.1 75 +12 +12 1028.7 943.1
02 12.09 С 1 14 км н/о +11.8 +8.1 78 +12 +12 1028.5 942.8
03 12.09 СЗ 2 15 км 1/0
[Ci fib]
+11.2 +7.9 80 +10 +10 1028.7 942.8
04 12.09 С 2 10 км н/о +10.8 +8.0 83 +10 +10 1028.9 942.9
05 12.09 С 1 10 км н/о +10.6 +8.0 84 +10 +10 1029.3 943.2
06 12.09 С 2 15 км ясно +10.6 +8.0 84 +10 +10 1029.8 943.6 +10.6
07 12.09 С 2 10 км н/о +11.3 +8.3 82 +10 +10 1029.5 943.6
08 12.09 С 1 12 км н/о +13.0 +8.7 75 +13 +13 1029.7 944.2
09 12.09 СВ 1 20 км ясно +15.9 +9.1 64 +17 +23 1029.4 944.8
10 12.09 СВ 2 17 км н/о +18.6 +9.1 54 +20 +20 1028.7 944.9
11 12.09 С 2 19 км н/о +21.8 +8.7 43 +23 +23 комфорт 1027.1 944.3
12 12.09 С 2 30 км ясно +24.6 +8.5 36 +25 +38 комфорт 1025.3 943.4
13 12.09 С 2 20 км н/о +26.7 +8.2 31 +27 +27 жарко 1024.0 942.7
14 12.09 В 3 20 км н/о +28.4 +6.5 25 +27 +27 жарко 1022.7 941.9
15 12.09 В 3 30 км ясно +29.0 +6.4 24 +28 +34 жарко 1022.0 941.4
16 12.09 В 4 20 км н/о +28.9 +6.9 25 +28 +28 жарко 1021.8 941.2
17 12.09 СВ 3 20 км н/о +28.0 +6.7 26 +27 +27 жарко 1022.2 941.3
18 12.09 В 3 30 км 1/0 1500 м
[Ac trans]
+26.9 +6.8 28 +26 +27 жарко 1022.6 941.4 +29.3
19 12.09 СВ 2 19 км н/о +25.0 +8.0 34 +25 +25 комфорт 1023.0 941.3
20 12.09 СВ 2 18 км н/о +23.4 +8.7 39 +25 +25 комфорт 1024.3 942.1
21 12.09 СВ 2 25 км ясно +22.1 +8.6 42 +23 +23 комфорт 1025.1 942.5
22 12.09 С 1 19 км н/о +20.7 +9.0 47 +23 +23 комфорт 1025.7 942.7
23 12.09 С 1 19 км н/о +19.5 +9.1 51 +22 +22 комфорт 1025.9 942.6
00 13.09 СЗ 1 20 км ясно +18.3 +9.4 56 +20 +20 1026.6 942.9
01 13.09 СЗ 1 16 км н/о +17.3 +9.5 60 +18 +18 1027.0 943.0
02 13.09 С 1 16 км н/о +16.9 +10.3 65 +18 +18 1027.1 943.0
03 13.09 С 1 20 км 1/1 600 м
[Sc Ci fib]
+16.6 +10.0 65 +17 +17 1026.6 942.4
04 13.09 С 1 16 км н/о +15.9 +10.4 70 +17 +17 1027.1 942.7
05 13.09 С 2 15 км н/о +15.3 +9.6 69 +15 +15 1027.3 942.7
06 13.09 С 2 20 км 3/0
[Cs]
+14.8 +10.0 73 +15 +15 1026.9 942.2 +14.8
07 13.09 С 2 13 км н/о +14.6 +10.4 76 +15 +15 1027.2 942.4
08 13.09 С 1 15 км н/о +16.8 +10.4 66 +18 +18 1026.6 942.5
09 13.09 СВ 1 25 км 4/3 600 м
[Sc Ac trans Cs]
+18.1 +10.7 62 +19 +24 1026.0 942.3
10 13.09 СВ 1 14 км н/о +21.5 +10.9 51 +23 +23 комфорт 1024.8 942.1
11 13.09 СВ 1 16 км в посл. час дождь н/о +23.7 +10.7 44 +25 +25 комфорт 1022.8 940.9 0.0
12 13.09 В 5 30 км {ливн. осадки} 6/5 600 м
[Cu Sc Ac trans Ci fib]
+26.2 +6.8 29 +26 +29 жарко 1021.7 940.4 0.0
13 13.09 В 5 19 км н/о +26.2 +7.2 30 +26 +26 жарко 1021.0 939.8
14 13.09 В 4 20 км н/о +26.1 +5.1 26 +25 +25 комфорт 1021.2 939.9
15 13.09 В 6 15 км слаб. дождь 8/6 600 м
[Cu Sc Ac trans Ci fib]
+20.7 +9.3 48 +22 +23 комфорт 1023.6 940.8 0.0
16 13.09 В 5 13 км слаб. дождь н/о +20.1 +9.6 51 +21 +21 комфорт 1023.6 940.6 0.0
17 13.09 В 5 20 км н/о +19.5 +9.9 54 +20 +20 1023.7 940.6
18 13.09 В 4 30 км {ливн. осадки} 8/5 600 м
[Cu Sc Ac trans Ci fib]
+19.3 +11.1 59 +20 +20 1023.4 940.3 +26.9 0.0
19 13.09 В 3 19 км н/о +18.8 +10.6 59 +20 +20 1024.0 940.7
20 13.09 В 2 19 км н/о +18.5 +10.6 60 +19 +19 1024.6 941.1
21 13.09 СВ 2 25 км 8/5 600 м
[Cu Sc Ac trans Ci fib]
+18.3 +10.6 61 +19 +19 1024.8 941.3
22 13.09 В 2 18 км н/о +18.2 +10.8 62 +19 +19 1025.2 941.6
23 13.09 СВ 2 19 км н/о +17.9 +11.0 64 +19 +19 1025.0 941.4
00 14.09 С 1 15 км н/о +17.3 +10.7 65 +18 +18 1024.7 940.9
01 14.09 С 1 17 км н/о +16.9 +10.7 67 +18 +18 1024.6 940.7
02 14.09 С 1 17 км н/о +17.0 +10.8 67 +18 +18 1023.8 940.0
03 14.09 СВ 2 15 км 6/4 600 м
[Cu Sc Ac trans Ci fib]
+17.2 +11.0 67 +18 +18 1023.6 939.9
04 14.09 В 2 7000 м слаб. морось с дождем н/о +15.4 +13.4 88 +16 +16 1024.1 939.9 3
05 14.09 СЗ 1 4900 м в посл. час дождь н/о +15.1 +14.0 93 +16 +16 1023.9 939.7 0.4
06 14.09 В 1 8000 м дымка {ливн. осадки, дождь} н/о +14.7 +13.2 91 +16 +16 1024.6 940.2 +14.6 3
07 14.09 С 1 11 км н/о +15.2 +13.2 88 +16 +16 1024.5 940.2
08 14.09 С 1 14 км н/о +17.0 +13.1 78 +18 +18 1023.8 940.1
09 14.09 В 3 30 км 4/0
[Ac trans Ci fib]
+20.3 +11.8 58 +23 +27 комфорт 1022.5 939.7
10 14.09 В 5 18 км н/о +22.0 +10.8 49 +24 +24 комфорт 1021.7 939.4
11 14.09 В 5 19 км н/о +23.3 +10.7 45 +25 +25 комфорт 1020.7 938.8
12 14.09 В 3 30 км 6/3 600 м
[Cu hum Ac trans Ci fib]
+25.3 +10.0 38 +26 +32 жарко 1019.6 938.3
13 14.09 В 3 20 км н/о +25.8 +9.2 35 +26 +26 жарко 1018.5 937.4
14 14.09 ЮВ 4 19 км н/о +25.1 +9.0 36 +26 +26 жарко 1018.2 937.0 0.4
15 14.09 Ю 2 30 км 9/4 300 м
[Cu med, cong Ac cuf Ci sp]
+26.6 +9.4 34 +27 +30 жарко 1017.3 936.5 0.4
16 14.09 ЮВ 4 20 км н/о +25.5 +9.3 36 +26 +26 жарко 1018.0 936.9
17 14.09 ЮВ 3 7000 м слаб. дождь н/о +19.8 +13.7 68 +22 +22 комфорт 1020.6 937.9 0.0
18 14.09 В 4 25 км в посл. час ливневой дождь 9/4 300 м
[Cu med, cong Ac cuf Ci sp]
+19.9 +11.9 60 +22 +22 комфорт 1020.4 937.7 +26.7 0.0
19 14.09 ЮВ 2 19 км н/о +19.3 +12.1 63 +21 +21 комфорт 1020.9 938.0
20 14.09 ЮВ 2 19 км н/о +19.1 +12.4 65 +21 +21 комфорт 1021.4 938.4
21 14.09 ЮВ 2 15 км слаб. дождь 10/0 1500 м
[Ac As Ci ing]
+18.3 +13.8 75 +19 +19 1022.2 939.0 0.2
22 14.09 ЮВ 1 12 км в посл. час дождь н/о +16.8 +15.0 89 +18 +18 1022.1 938.5 1
23 14.09 СЗ 1 10 км н/о +16.5 +14.5 88 +17 +17 1021.8 938.1
00 15.09 СВ 1 20 км {ливн. осадки} 9/0 1500 м
[Ac As Cs]
+16.5 +14.3 87 +17 +17 1021.3 937.7 1
01 15.09 С 1 14 км н/о +17.1 +13.8 81 +18 +18 1020.8 937.4
02 15.09 СВ 1 15 км н/о +17.0 +12.9 77 +18 +18 1020.7 937.2
03 15.09 СВ 1 20 км 9/0
[Ac As Cs]
+17.0 +11.9 72 +18 +18 1020.3 936.8
04 15.09 СВ 1 16 км н/о +17.2 +10.8 66 +18 +18 1019.9 936.5
05 15.09 СВ 1 15 км в посл. час дождь н/о +17.1 +10.7 66 +18 +18 1020.0 936.5 0.0
06 15.09 В 2 20 км в посл. час ливневой дождь 10/0 1500 м
[Ac As]
+15.5 +12.3 81 +16 +16 1020.7 936.8 +15.5 2
07 15.09 СВ 2 10 км в посл. час дождь н/о +15.6 +12.5 82 +16 +16 1020.6 936.7 0.0
08 15.09 С 2 13 км н/о +17.0 +12.7 76 +18 +18 1020.4 936.9
09 15.09 В 3 15 км слаб. ливневой дождь 10/1 600 м
[Cu med, cong Ac As Cs]
+18.7 +11.7 64 +20 +22 1020.5 937.5 0.2
10 15.09 С 1 13 км в посл. час дождь н/о +17.7 +12.4 71 +19 +19 1020.8 937.5 0.0
11 15.09 В 2 15 км в посл. час дождь н/о +19.6 +12.6 64 +22 +22 комфорт 1019.8 937.1 0.0
12 15.09 СВ 2 12 км слаб. ливневой дождь 10/0 1500 м
[Ac As Cs]
+17.2 +14.8 86 +18 +23 1020.4 937.1 0.8
13 15.09 С 1 11 км в посл. час дождь н/о +17.8 +14.9 83 +19 +19 1019.8 936.7 0.0
14 15.09 С 1 13 км слаб. дождь н/о +18.8 +15.3 80 +21 +21 комфорт 1018.8 936.0 0.0
15 15.09 В 4 25 км {ливн. осадки} 9/3 600 м
[Cu med, cong Ac As Cs]
+21.4 +14.3 64 +24 +26 комфорт 1017.5 935.5 0.0
17 15.09 В 3 19 км н/о +20.0 +13.0 64 +22 +22 комфорт 1018.1 935.6
18 15.09 СВ 2 25 км {ливн. осадки} 9/1 600 м
[Cu Sc Ac As Ci fib]
+18.7 +12.7 68 +20 +20 1018.6 935.7 +21.5
19 15.09 В 2 15 км н/о +17.9 +13.0 73 +18 +18 1018.9 935.8
20 15.09 СВ 2 15 км н/о +17.2 +13.5 79 +18 +18 1019.0 935.7
21 15.09 СВ 1 20 км 9/3 600 м
[Cu Sc Ac As Cs]
+16.6 +13.7 83 +18 +18 1019.8 936.3
22 15.09 С 1 13 км н/о +16.3 +13.8 85 +17 +17 1019.9 936.3
23 15.09 С 1 13 км н/о +15.6 +13.6 88 +16 +16 1020.2 936.4

 

Местоположение метеостанции Вальядолид (Испания): широта 41.65 долгота -4.77 высота над уровнем моря 735 м.

В архиве по умолчанию представлена погода в Вальядолиде за последнюю неделю. Архивные данные за месяц целиком и за предыдущие месяцы, начиная с января 2011 года, Вы можете получить, выбрав интересующий диапазон дат из раскрывающегося списка и нажав кнопку "Ввод!".


*Определитесь, кто Вы:
робот инопланетянин человек

Внимание! Время в таблицах - всемирное. Для получения местного времени необходимо прибавить поправку, которая равна 1 ч.

Смотрите также архив погоды в соседних городах и на ближайших метеорологических станциях:

Погода в Аутилье-дель-Пино (Испания) (41 км)
Погода в Каррион-де-лос-Кондесе (Испания) (79 км)
Погода в Заморе (Испания) (81 км)
Погода в Бенавенте (Испания) (85 км)
Погода в Аранда-де-Дуэро (Испания) (86 км)
Погода в Сеговии (Испания) (95 км)
Погода в Саламанке (Испания) (99 км)
Погода в Саламанке (Испания) (107 км)
Погода в Авиле (Испания) (111 км)
Погода в Сомосьерре (Испания) (114 км)

Пояснения к столбцам:

Ветер - указаны скорость ветра в м/с - средняя за 10 мин, порывы в срок и между сроками (в фигурных скобках) и направление, откуда дует ветер: С - северный, СВ - северо-восточный, В - восточный, ЮВ - юго-восточный, Ю - южный, ЮЗ - юго-западный, З - западный, СЗ - северо-западный.
Видимость - горизонтальная дальность видимости в метрах или километрах. При видимости от 1 до 10 км при отсутствии осадков обычно наблюдается дымка, при ухудшении видимости до 1 км и менее - туман. В сухую погоду видимость может ухудшаться дымом, пылью или мглою.
Явления - указаны атмосферные явления, наблюдавшиеся в срок или в последний час перед сроком; фигурными скобками обозначены явления, наблюдавшиеся между сроками (за 1-3 часа до срока); квадратными скобками обозначены град или гололедные отложения с указанием их диаметра в мм.
Облачность - указаны через наклонную черту общая и нижняя облачность в баллах и высота нижней границы облаков в метрах; квадратными скобками обозначены формы облаков: Ci - перистые, Cs - перисто-слоистые, Cc - перисто-кучевые, Ac - высококучевые, As - высокослоистые, Sc - слоисто-кучевые, Ns - слоисто-дождевые, Cu - кучевые, Cb - кучево-дождевые. Подробнее классификацию облаков см. в Атласе облаков (PDF).
T - Температура воздуха - температура, измеренная на высоте 2 м над землей.
Td - Температура точки росы - температура, при понижении до которой содержащийся в воздухе водяной пар достигнет насыщения.
f - Относительная влажность воздуха - влажноcть воздуха, измеренная на высоте 2 м над землей.
Te - Эффективная температура - температура, которую ощущает одетый по сезону человек в тени. Характеристика душности погоды. При расчете учитывается влияние влажности воздуха и скорости ветра на теплоощущения человека.
Tes - Эффективная температура на солнце - температура, которую ощущает человек, с поправкой на солнечный нагрев. Характеристика знойности погоды. Зависит от высоты солнца над горизонтом, облачности и скорости ветра. Ночью, в пасмурную погоду, а также при ветре 12 м/с и более поправка равна нулю.
P - Атмосферное давление - приведенное к уровню моря атмосферное давление.
Po - Атмосферное давление - измеренное на уровне метеостанции атмосферное давление.
Tmin - Минимальная температура - минимум температуры воздуха на высоте 2 м над землей.
Tmax - Максимальная температура - максимум температуры воздуха на высоте 2 м над землей.
R - Количество осадков - Количество выпавших осадков за период времени, мм. При наведении курсора мыши на число - период времени, за который выпало указанное количество осадков.
R24 - Количество осадков - Количество выпавших осадков за 24 часа, мм.
S - Снежный покров - Высота снежного покрова, см. При наведении курсора мыши на число - состояние снежного покрова и степень покрытия местности в баллах.